Simultaneous Nadir Overpasses (SNOs) Predictions

Prediction of SNOs between NPP and METOP-C Satellite Orbit:

Table of predicted SNOs for the next 14.0 days since TLE Epoch: 2/3/2024
Index Date (NPP) Time (NPP) Lat,Lon (NPP) SZA (NPP ) Date (METOP-C) Time (METOP-C) Lat,Lon (METOP-C) SZA (METOP-C ) Distance(km) Time Diff (sec)
1 02/06/2024 22:57:27 73.62,-174.32 89.51 02/06/2024 22:58:32 73.56,-171.17 89.26 98.99 65
2 02/06/2024 23:48:09 -73.52, -6.76 90.63 02/06/2024 23:49:16 -73.46, -4.08 90.85 84.83 67
3 02/07/2024 00:38:50 73.28, 161.09 89.10 02/07/2024 00:40:00 73.24, 162.76 88.95 53.47 70
4 02/07/2024 01:29:33 -73.22, -31.47 90.98 02/07/2024 01:30:44 -73.14, -30.14 91.15 43.86 71
5 02/07/2024 02:20:14 72.98, 136.36 88.75 02/07/2024 02:21:27 72.96, 136.82 88.69 14.92 73
6 02/07/2024 03:10:57 -72.93, -56.20 91.33 02/07/2024 03:12:10 -72.91, -55.96 91.37 8.11 73
7 02/07/2024 04:01:41 72.84, 111.30 88.57 02/07/2024 04:02:51 72.84, 111.21 88.55 2.83 70
8 02/07/2024 04:52:25 -72.83, -81.38 91.45 02/07/2024 04:53:33 -72.84, -81.46 91.46 2.68 68
9 02/07/2024 05:43:11 72.84, 85.91 88.55 02/07/2024 05:44:12 72.86, 85.93 88.56 2.41 61
10 02/07/2024 06:33:55 -72.84,-106.76 91.47 02/07/2024 06:34:54 -72.86,-106.74 91.46 3.14 59
11 02/07/2024 07:24:41 72.85, 60.53 88.54 02/07/2024 07:25:34 72.84, 60.54 88.51 1.07 53
12 02/07/2024 08:15:25 -72.84,-132.15 91.49 02/07/2024 08:16:16 -72.84,-132.13 91.50 0.72 51
13 02/07/2024 09:06:10 72.80, 35.25 88.46 02/07/2024 09:06:56 72.81, 35.15 88.47 3.46 46
14 02/07/2024 09:56:54 -72.80,-157.43 91.56 02/07/2024 09:57:38 -72.82,-157.52 91.54 3.57 44
15 02/07/2024 10:47:40 72.81, 9.86 88.45 02/07/2024 10:48:17 72.84, 9.86 88.47 3.62 37
16 02/07/2024 11:38:24 -72.80, 177.18 91.57 02/07/2024 11:39:00 -72.79, 177.09 91.59 3.24 36
17 02/07/2024 12:29:10 72.81, -15.53 88.43 02/07/2024 12:29:39 72.82, -15.53 88.43 0.27 29
18 02/07/2024 13:19:53 -72.81, 151.80 91.59 02/07/2024 13:20:20 -72.82, 151.81 91.58 1.16 27
19 02/07/2024 14:10:39 72.82, -40.91 88.42 02/07/2024 14:11:00 72.79, -40.92 88.39 3.08 21
20 02/07/2024 15:01:23 -72.82, 126.41 91.60 02/07/2024 15:01:42 -72.80, 126.42 91.63 2.21 19
21 02/07/2024 15:52:09 72.83, -66.30 88.40 02/07/2024 15:52:21 72.82, -66.20 88.39 3.37 12
22 02/07/2024 16:42:52 -72.77, 101.13 91.67 02/07/2024 16:43:04 -72.77, 101.03 91.67 3.30 12
23 02/07/2024 17:33:38 72.78, -91.58 88.33 02/07/2024 17:33:43 72.79, -91.59 88.34 1.54 5
24 02/07/2024 18:24:22 -72.78, 75.74 91.69 02/07/2024 18:24:25 -72.80, 75.74 91.67 2.44 3
25 02/07/2024 19:15:08 72.79,-116.97 88.32 02/07/2024 19:15:05 72.77,-116.98 88.30 1.89 3
26 02/07/2024 20:05:52 -72.78, 50.36 91.71 02/07/2024 20:05:47 -72.77, 50.36 91.71 0.86 5
27 02/07/2024 20:56:38 72.79,-142.35 88.30 02/07/2024 20:56:26 72.80,-142.27 88.30 2.96 12
28 02/07/2024 21:47:22 -72.79, 24.97 91.72 02/07/2024 21:47:08 -72.80, 25.07 91.71 3.63 14
29 02/07/2024 22:38:07 72.75,-167.64 88.23 02/07/2024 22:37:48 72.77,-167.66 88.26 2.82 19
30 02/07/2024 23:28:52 -72.79, -0.42 91.74 02/07/2024 23:28:30 -72.78, -0.32 91.75 3.72 22
31 02/08/2024 00:19:37 72.75, 166.98 88.21 02/08/2024 00:19:10 72.75, 166.95 88.22 0.99 27
32 02/08/2024 01:10:21 -72.75, -25.70 91.81 02/08/2024 01:09:52 -72.75, -25.71 91.80 0.57 29
33 02/08/2024 02:01:07 72.76, 141.59 88.20 02/08/2024 02:00:31 72.77, 141.67 88.22 3.09 36
34 02/08/2024 02:51:51 -72.75, -51.08 91.82 02/08/2024 02:51:14 -72.73, -51.10 91.84 2.88 37
35 02/08/2024 03:42:37 72.76, 116.21 88.18 02/08/2024 03:41:53 72.75, 116.28 88.17 2.99 44
36 02/08/2024 04:33:21 -72.76, -76.47 91.84 02/08/2024 04:32:35 -72.76, -76.38 91.84 2.99 46
37 02/08/2024 05:24:06 72.72, 90.92 88.11 02/08/2024 05:23:15 72.73, 90.89 88.13 1.26 51
38 02/08/2024 06:14:50 -72.72,-101.75 91.91 02/08/2024 06:13:57 -72.73,-101.77 91.88 1.88 53
39 02/08/2024 07:05:36 72.73, 65.54 88.09 02/08/2024 07:04:37 72.70, 65.50 88.09 3.02 59
40 02/08/2024 07:56:20 -72.72,-127.14 91.93 02/08/2024 07:55:19 -72.71,-127.16 91.92 1.68 61
41 02/08/2024 08:47:06 72.73, 40.15 88.08 02/08/2024 08:45:58 72.73, 40.22 88.09 2.19 68
42 02/08/2024 09:37:50 -72.73,-152.53 91.94 02/08/2024 09:36:40 -72.73,-152.44 91.92 2.78 70
43 02/08/2024 10:28:35 72.69, 14.87 88.01 02/08/2024 10:27:20 72.70, 14.83 88.04 2.31 75
44 02/08/2024 11:19:18 -72.63,-177.70 92.07 02/08/2024 11:18:04 -72.61,-178.04 92.05 11.50 74
45 02/08/2024 12:09:59 72.39, -9.90 87.66 02/08/2024 12:08:48 72.37, -11.18 87.74 43.15 71
46 02/08/2024 13:00:42 -72.33, 157.52 92.42 02/08/2024 12:59:31 -72.33, 156.06 92.32 49.25 71
47 02/08/2024 13:51:23 72.09, -34.69 87.31 02/08/2024 13:50:15 72.09, -37.07 87.47 81.36 68
48 02/08/2024 14:42:06 -72.03, 132.73 92.77 02/08/2024 14:40:59 -72.00, 130.09 92.62 90.83 67



Historial Predications of SNOs between NPP and METOP-C
